Location: Bli�n�
(48.7226°N, 14.0957°E)
Time: 06:25:45
(UTC+00:00)

Daily predictions for brighter satellites

Satellite Brightness Start Highest point End
(mag) Time Altitude Azimuth Time Altitude Azimuth Time Altitude Azimuth
USA 306 3.5 16:14:34 10° WNW 16:18:42 43° N 16:22:49 10° E
Cosmos 1818 4.4 16:14:19 10° WSW 16:19:37 51° NW 16:24:58 10° NNE
CSL-04 DEB 4.3 16:17:02 10° NNE 16:20:59 78° ESE 16:24:53 10° SSW
Cosmos 968 Rocket 4.4 16:17:47 10° N 16:22:16 27° NE 16:26:40 10° ESE
Cosmos 2369 Rocket 3.8 16:18:51 10° WSW 16:23:54 32° NW 16:29:01 10° NNE
Cosmos 2297 Rocket 2.6 16:19:24 10° NNW 16:24:49 43° NE 16:30:11 10° SE
ERS-2 2.4 16:21:35 10° NNE 16:25:06 44° E 16:28:36 10° S
Aureole 3 Rocket 4.3 16:21:49 10° SE 16:25:14 25° E 16:29:36 10° NNE
Meteor 1-11 4.3 16:20:13 10° N 16:25:58 76° ENE 16:31:45 10° SSE
COSMOS 2487 3.9 16:25:01 10° NW 16:28:18 42° WSW 16:31:34 10° S
Cosmos 1340 3.6 16:25:45 10° N 16:28:59 26° ENE 16:32:13 10° SE
COSMO-SKYMED 1 3.5 16:27:20 10° NE 16:31:02 27° E 16:34:43 10° SSE
CORIOLIS 4.2 16:26:24 10° SSE 16:31:45 87° ENE 16:37:09 10° NNW
FengYun 1-2 T 4.3 16:27:15 10° SSE 16:32:53 71° ENE 16:38:29 10° N
H-2A R/B 2.5 16:28:59 10° N 16:33:08 64° WNW 16:37:12 10° SSW
Cosmos 1110 Rocket 4.0 16:29:05 10° SSW 16:34:17 69° ESE 16:39:29 10° NNE
NOSS 2-2 (C) 4.4 16:32:04 10° NW 16:37:24 70° NE 16:44:48 10° SE
Lacrosse 5 3.0 16:34:51 10° WNW 16:39:30 35° N 16:44:08 10° NE
Timation 2 Rocket 4.1 16:33:19 10° NNW 16:39:56 81° ENE 16:46:45 10° SSE
Cosmos 1825 Rocket 3.6 16:36:07 10° N 16:40:36 89° W 16:45:01 10° S
ADEOS Rocket 3.7 16:36:52 10° N 16:43:09 68° WNW 16:50:09 10° SSW
Envisat 4.3 16:38:23 10° S 16:43:14 45° W 16:48:09 10° NNW
Cosmos 292 Rocket 3.9 16:38:52 10° S 16:43:34 57° ESE 16:48:19 10° NNE
Aureole 3 3.6 16:41:25 10° SSE 16:44:06 26° E 16:46:40 10° NNE
Okean O Rocket 2.3 16:41:00 10° S 16:45:18 58° W 16:49:37 10° NNW
Meteor 2-21 Rocket 4.4 16:39:13 10° N 16:45:26 81° E 16:51:34 10° SSE
FALCON 9 DEB 4.0 16:43:02 10° WNW 16:46:17 38° N 16:48:52 14° ENE
YAOGAN 1 3.5 16:43:34 10° ESE 16:47:14 28° ENE 16:50:55 10° N
USA 281 3.8 16:41:30 10° SSE 16:47:59 63° WSW 16:54:32 10° NNW
ERBS 4.2 16:45:58 10° WNW 16:48:35 20° N 16:51:09 10° NE
FALCON 9 DEB 3.5 16:45:45 10° SW 16:48:51 43° SE 16:51:05 16° E
FALCON 9 DEB 3.3 16:49:58 10° SW 16:53:05 49° SSE 16:55:10 18° ENE
CZ-2C R/B 3.8 16:48:15 10° SE 16:53:32 38° ENE 16:58:40 10° N
Feng Yun 1-1 Rocket 4.4 16:47:39 10° SSE 16:53:33 80° ENE 16:59:31 10° NNW
SMAP 4.2 16:49:42 10° S 16:54:12 49° W 16:58:45 10° NNW
Cosmos 2219 3.2 16:49:26 10° NNW 16:55:13 71° ENE 17:00:57 10° SE
Cosmos 1455 3.7 16:53:59 10° SE 16:56:10 17° E 16:56:10 17° E
Cosmos 1726 Rocket 3.5 16:53:06 10° S 16:57:26 77° E 17:01:51 10° NNE
Cosmos 1553 Rocket 4.3 16:54:24 10° SSE 17:00:24 46° E 17:06:21 10° NNE
USA 307 3.1 16:57:36 10° WNW 17:01:50 55° NNE 17:04:41 19° E
Meteor 2-10 Rocket 4.2 16:58:46 10° SSE 17:03:22 31° E 17:07:52 10° NNE
Cosmos 2082 4.2 16:58:23 10° NNW 17:03:49 41° NE 17:08:49 12° ESE
Cosmos 2228 3.4 17:00:19 10° SSW 17:04:33 68° WNW 17:08:50 10° N
FALCON 9 DEB 3.1 17:01:52 10° SW 17:05:03 57° SSE 17:06:44 24° ENE
Cosmos 1939 Rocket 2.7 17:01:08 10° SSE 17:05:06 78° ENE 17:09:01 10° N
CZ-4B R/B 1.8 17:01:55 10° N 17:05:09 61° WNW 17:08:15 10° SSW
USA 308 3.1 17:02:26 10° WNW 17:06:41 57° NNE 17:09:20 21° E
ATLAS 5 CENTAUR R/B 3.8 17:05:49 10° WNW 17:09:00 18° NNW 17:12:30 10° NNE
CZ-4 R/B 4.4 17:05:30 10° SSE 17:09:38 69° ENE 17:13:47 10° N
Helios 1A Rocket 2.8 17:08:10 10° SSE 17:12:15 66° ENE 17:16:20 10° N
Cosmos 1606 Rocket 4.2 17:08:48 10° SSW 17:13:06 59° WNW 17:17:29 10° N
FALCON 9 DEB 2.9 17:13:29 10° WSW 17:16:42 73° SSE 17:17:56 34° ENE
ARGOS 3.8 17:13:10 14° ESE 17:17:02 32° ENE 17:21:49 10° N
Okean-O 2.5 17:14:19 10° SSE 17:18:42 68° ENE 17:23:09 10° N
SKYMED 2 3.5 17:14:57 10° NNE 17:19:19 79° ESE 17:23:40 10° S
Cosmos 1689 Rocket 1.8 17:17:41 10° NNE 17:20:35 82° E 17:23:28 10° SSW
SL-08 R/B 4.4 17:15:22 10° N 17:21:35 77° E 17:27:41 10° SSE
Cosmos 1656 3.7 17:16:47 10° S 17:22:15 60° ESE 17:27:49 10° NE
Cosmos 1745 Rocket 4.0 17:18:32 10° N 17:24:46 61° ENE 17:31:02 10° SSE
Cosmos 1400 Rocket 2.8 17:20:42 10° S 17:24:49 88° W 17:28:56 10° NNE
H-2A R/B 2.4 17:21:21 10° SE 17:26:32 48° ENE 17:31:46 10° N
Ariane Rocket 4.3 17:27:38 21° NE 17:27:38 21° NE 17:31:14 10° N
PSLV R/B 3.8 17:23:24 10° NNE 17:27:37 79° ESE 17:31:45 10° S
GEOS 3 Rocket 3.8 17:24:33 21° ESE 17:28:08 60° NE 17:33:28 10° NW
CZ-4 R/B 1.1 17:25:11 10° SSE 17:29:04 79° ENE 17:32:55 10° N
Geosat 4.5 17:26:30 22° ENE 17:29:05 37° ESE 17:33:44 10° S
Cosmos 2227 Rocket 2.2 17:23:28 10° NNW 17:29:10 86° WSW 17:34:50 10° SSE
Cosmos 2058 2.8 17:25:29 10° N 17:29:33 58° ENE 17:33:35 10° SSE
Cosmos 1892 2.6 17:26:59 10° N 17:30:54 84° E 17:34:46 10° S
Cosmos 220 Rocket 4.3 17:28:32 10° S 17:32:38 42° ESE 17:34:08 31° ENE
Cosmos 2263 Rocket 3.3 17:30:02 10° N 17:34:43 25° NE 17:35:34 24° ENE
CSL-04 Rocket 3.7 17:29:24 10° SE 17:34:50 57° ENE 17:40:14 10° N
Cosmos 1408 2.5 17:31:28 10° N 17:35:06 61° ENE 17:37:15 23° SSE
BREEZE-M R/B 3.1 17:29:05 10° W 17:36:23 85° N 17:37:08 49° E
Cosmos 1386 Rocket 4.4 17:31:48 10° N 17:38:14 71° E 17:44:33 10° SSE
NOSS 3-4 (A) 4.2 17:34:33 10° NW 17:41:01 45° NE 17:44:11 30° E
NOSS 3-4 (C) 4.2 17:34:39 10° NW 17:41:08 45° NE 17:44:16 30° E
CZ-4C R/B 3.8 17:35:48 10° NW 17:41:32 30° NNE 17:44:25 23° ENE
Meteor 2-1 Rocket 4.1 17:36:16 10° S 17:41:38 58° E 17:47:04 10° NNE
Cosmos 2058 Rocket 3.8 17:42:06 10° SSW 17:46:30 54° WNW 17:50:58 10° N
Cosmos 1697 Rocket 2.8 17:41:26 10° S 17:46:50 51° ESE 17:49:37 27° NE
SeaSat 1 2.6 17:46:28 39° ESE 17:47:52 52° NE 17:52:40 10° NNW
CZ-2D R/B 4.3 17:44:25 10° S 17:48:06 46° W 17:51:48 10° NNW
SL-4 R/B 1.8 17:45:11 10° WNW 17:48:46 62° NNE 17:49:04 59° NE
Cosmos 1346 Rocket 2.8 17:45:50 10° NNW 17:49:50 81° W 17:53:49 10° S
CRYOSAT 2 4.2 17:46:48 10° N 17:51:41 68° E 17:56:30 10° S
NOSS 3-3 (A) 4.0 17:46:04 10° SSW 17:51:41 53° ESE 17:54:18 33° ENE
NOSS 3-3 (C) 4.0 17:46:09 10° SSW 17:51:49 53° ESE 17:54:24 33° ENE
Cosmos 1825 2.3 17:48:20 10° N 17:51:38 56° NE 17:51:38 56° NE
USA 305 2.8 17:48:18 10° WNW 17:52:38 89° S 17:53:27 58° ESE
USA 215 3.6 17:51:39 32° ENE 17:54:28 53° NNE 18:00:47 10° WNW
Cosmos 1709 Rocket 4.0 17:48:15 10° N 17:54:34 59° ENE 17:59:42 16° SSE
Cosmos 44 4.2 17:51:20 10° WSW 17:55:42 43° NW 17:59:04 17° NNE
Cosmos 1315 Rocket 2.6 17:52:02 10° S 17:55:57 72° E 17:56:20 66° NE
SJ-11-01 4.1 17:53:43 14° SSE 17:57:47 86° ENE 18:02:30 10° NNW
USA 306 2.8 17:54:42 10° WNW 17:59:01 83° SSW 17:59:35 66° SE
BREEZE-M R/B 3.7 17:58:26 10° WNW 18:02:40 89° SSW 18:05:18 41° ESE
ATLAS 2AS CENTAUR R/B 3.2 17:55:51 10° NW 18:03:14 48° NE 18:05:17 39° ENE
Cosmos 968 Rocket 4.2 17:59:17 10° NNW 18:04:21 52° WSW 18:09:21 10° S
COSMO-SKYMED 1 4.1 18:03:17 10° N 18:07:17 36° WNW 18:11:14 10° SW
MOS 1 Rocket 3.2 18:03:32 10° NNE 18:08:12 83° ESE 18:13:09 10° SSW
Cosmos 2297 Rocket 3.6 18:03:38 10° NW 18:08:49 37° WSW 18:13:57 10° S
Cosmos 1980 Rocket 3.2 18:04:16 10° S 18:07:19 29° SSE 18:07:19 29° SSE
Cosmos 1076 Rocket 3.6 18:05:33 10° NNW 18:09:48 74° W 18:11:35 34° S
Cosmos 883 Rocket 4.3 18:05:17 10° S 18:11:23 69° E 18:17:29 10° NNE
Cosmos 1777 Rocket 4.5 18:06:32 10° NNW 18:10:50 43° NE 18:10:50 43° NE
CSL-04 Debris 4.4 18:09:55 10° S 18:15:19 68° WSW 18:20:48 10° NNW
Cosmos 2315 Rocket 3.9 18:09:20 10° S 18:15:25 61° E 18:21:32 10° NNE
S3M 4.1 18:09:54 10° SSW 18:16:00 73° WNW 18:22:12 10° N
YAOGAN 1 4.1 18:19:16 10° SSW 18:23:14 35° W 18:27:13 10° NNW
Lacrosse 5 2.8 18:18:48 10° NW 18:23:29 36° NNE 18:23:29 36° NNE
Cosmos 2360 4.0 18:19:58 10° SSW 18:25:41 77° ESE 18:26:15 70° ENE
Cosmos 1812 Rocket 3.9 18:26:31 10° SSW 18:35:45 - N 18:30:36 61° W
Cosmos 1455 3.5 18:28:08 10° SSW 18:31:13 39° W 18:31:13 39° W
Meteor 2-3 Rocket 4.1 18:30:16 10° N 18:34:44 51° NNE 18:34:44 51° NNE
Cosmos 2278 4.5 18:33:17 10° SSW 18:36:45 39° S 18:36:45 39° S
USA 307 4.2 18:37:46 10° WNW 18:40:52 38° WSW 18:40:52 38° WSW
USA 308 4.4 18:42:37 10° WNW 18:45:31 35° W 18:45:31 35° W
ATLAS 5 CENTAUR R/B 4.1 18:52:21 10° NNW 18:55:01 16° N 18:55:01 16° N
ARGOS 4.2 18:54:41 27° SSW 18:57:09 44° W 19:02:21 10° NNW
Cosmos 2369 4.3 18:57:08 10° SW 19:02:44 56° NW 19:03:11 54° NW
Ariane Rocket 4.2 19:07:51 38° NW 19:07:51 38° NW 19:11:03 10° NNW
H-2A R/B 3.9 19:01:30 10° SSW 19:06:09 29° W 19:10:52 10° NNW
Cosmos 2263 Rocket 3.2 19:13:32 10° NNW 19:17:16 42° NW 19:17:16 42° NW
SeaSat 1 4.3 19:26:15 27° W 19:26:15 27° W 19:29:50 10° NW
Cosmos 1697 Rocket 4.2 19:26:01 10° WSW 19:31:03 33° NW 19:31:25 32° NW
CZ-4C R/B 3.3 19:24:14 10° NW 19:29:36 55° NNW 19:29:36 55° NNW
NOSS 3-4 (A) 4.2 19:25:25 10° NW 19:31:39 59° W 19:31:39 59° W
NOSS 3-4 (C) 4.2 19:25:31 10° NW 19:31:43 60° W 19:31:43 60° W
USA 215 3.8 19:39:00 53° WNW 19:39:00 53° WNW 19:43:53 10° WNW
ATLAS 2AS CENTAUR R/B 3.6 19:47:10 10° NW 19:52:43 46° WNW 19:52:43 46° WNW
